Minneapolis Flying Cloud, MN

8:31 PM CDT on October 19, 2019 (GMT -0500)
Flying Cloud

Weather History for KFCM - August, 2019

Change the Weather History Date:

Tuesday, August 20, 2019

  Actual Average Record
Temperature  
Mean Temperature 72 °F -  
Max Temperature 82 °F 78 °F 91 °F (2003)
Min Temperature 64 °F 59 °F 51 °F (2004)
Cooling Degree Days 8    
Growing Degree Days 22 (Base 50)    
Moisture  
Dew Point 64 °F    
Average Humidity 80    
Maximum Humidity 93    
Minimum Humidity 66    
Precipitation  
Precipitation 0.83 in - - ()
Sea Level Pressure  
Sea Level Pressure 29.95 in    
Wind  
Wind Speed 8 mph (ESE)    
Max Wind Speed 15 mph    
Max Gust Speed 28 mph    
Visibility 8 miles    
Events Fog , Rain , Thunderstorm    
Averages and records for this station are not official NWS values.
T = Trace of Precipitation, MM = Missing Value Source: NWS Daily Summary

Daily Weather History Graph

Daily Weather History Graph

Search for Another Location

Airport or City:

Astronomy

Aug. 20, 2019 Rise Set
Actual Time 6:21 AM CDT 8:12 PM CDT
Civil Twilight 5:50 AM CDT 8:43 PM CDT
Nautical Twilight 5:11 AM CDT 9:21 PM CDT
Astronomical Twilight 4:30 AM CDT 10:02 PM CDT
Moon 10:48 PM CDT 11:11 AM CDT
Length of Visible Light 14h 52m
Length of Day
13h 50m
Waning Gibbous, 77% of the Moon is Illuminated
Aug 20
Waning Gibbous
Aug 23
Last Quarter
Aug 30
New
Sep 5
First Quarter
Sep 13
Full

Hourly Weather History & Observations

Time (CDT) Temp. Heat Index Dew Point Humidity Pressure Visibility Wind Dir Wind Speed Gust Speed Precip Events Conditions
12:53 AM 68.0 °F - 62.1 °F 81% 29.98 in 10.0 mi South 5.8 mph - N/A   Clear
1:53 AM 66.9 °F - 61.0 °F 81% 29.97 in 10.0 mi SSE 5.8 mph - N/A   Clear
2:53 AM 66.9 °F - 61.0 °F 81% 29.94 in 10.0 mi SE 9.2 mph - N/A   Clear
3:53 AM 68.0 °F - 61.0 °F 78% 29.90 in 10.0 mi East 3.5 mph - N/A   Clear
4:53 AM 66.9 °F - 61.0 °F 81% 29.89 in 10.0 mi ESE 5.8 mph - N/A   Overcast
5:53 AM 64.0 °F - 60.1 °F 87% 29.88 in 10.0 mi SE 5.8 mph - N/A   Clear
6:53 AM 66.0 °F - 60.1 °F 81% 29.90 in 10.0 mi SSE 6.9 mph - N/A   Clear
7:53 AM 68.0 °F - 62.1 °F 81% 29.88 in 10.0 mi SE 4.6 mph - N/A   Partly Cloudy
8:53 AM 69.1 °F - 62.1 °F 78% 29.90 in 10.0 mi SE 9.2 mph - N/A   Clear
9:47 AM 69.8 °F - 62.6 °F 78% 29.94 in 10.0 mi North 12.7 mph 17.3 mph 0.00 in Rain , Thunderstorm Light Rain
9:53 AM 70.0 °F - 63.0 °F 78% 29.95 in 10.0 mi North 12.7 mph 23.0 mph 0.00 in Thunderstorm Thunderstorm
10:03 AM 68.0 °F - 63.0 °F 84% 30.01 in 2.0 mi North 15.0 mph 27.6 mph 0.13 in Rain , Thunderstorm Light Thunderstorms and Rain
10:07 AM 66.0 °F - 64.0 °F 93% 30.02 in 1.0 mi North 15.0 mph 24.2 mph 0.31 in Rain , Thunderstorm Heavy Thunderstorms and Rain
10:11 AM 66.0 °F - 64.0 °F 93% 30.04 in 0.5 mi North 9.2 mph 24.2 mph 0.55 in Fog , Rain , Thunderstorm Heavy Thunderstorms and Rain
10:18 AM 66.0 °F - 64.0 °F 93% 30.00 in 0.8 mi ENE 10.4 mph 19.6 mph 0.74 in Rain , Thunderstorm Heavy Thunderstorms and Rain
10:27 AM 66.9 °F - 64.0 °F 90% 29.95 in 2.0 mi East 13.8 mph 20.7 mph 0.82 in Rain , Thunderstorm Heavy Thunderstorms and Rain
10:37 AM 66.9 °F - 64.0 °F 90% 29.95 in 5.0 mi East 12.7 mph 23.0 mph 0.83 in Rain , Thunderstorm Light Thunderstorms and Rain
10:40 AM 68.0 °F - 64.0 °F 87% 29.96 in 7.0 mi East 8.1 mph 21.9 mph 0.83 in Rain , Thunderstorm Light Rain
10:53 AM 66.9 °F - 64.0 °F 90% 29.94 in 10.0 mi SE 15.0 mph 24.2 mph 0.83 in Rain Light Rain
11:14 AM 66.9 °F - 64.0 °F 90% 29.95 in 10.0 mi SE 12.7 mph 20.7 mph 0.00 in   Scattered Clouds
11:53 AM 66.9 °F - 64.0 °F 90% 29.97 in 10.0 mi South 11.5 mph - 0.00 in   Scattered Clouds
12:53 PM 72.0 °F - 66.0 °F 81% 29.95 in 10.0 mi South 11.5 mph - N/A   Clear
1:53 PM 77.0 °F - 66.9 °F 71% 29.93 in 10.0 mi South 10.4 mph - N/A   Partly Cloudy
2:53 PM 79.0 °F - 66.9 °F 66% 29.93 in 10.0 mi SW 8.1 mph - N/A   Clear
3:53 PM 81.0 °F 84.1 °F 69.1 °F 67% 29.91 in 10.0 mi West 9.2 mph - N/A   Mostly Cloudy
4:12 PM 80.1 °F 82.7 °F 68.0 °F 67% 29.93 in 10.0 mi West 6.9 mph - N/A   Overcast
4:53 PM 81.0 °F 84.1 °F 69.1 °F 67% 29.92 in 10.0 mi WNW 5.8 mph - N/A   Overcast
5:53 PM 80.1 °F 82.9 °F 69.1 °F 69% 29.92 in 10.0 mi West 5.8 mph - N/A   Overcast
6:53 PM 80.1 °F 82.7 °F 68.0 °F 67% 29.92 in 10.0 mi NNW 12.7 mph - N/A   Mostly Cloudy
7:53 PM 78.1 °F - 68.0 °F 71% 29.93 in 10.0 mi NW 4.6 mph - N/A   Scattered Clouds
8:53 PM 75.0 °F - 68.0 °F 79% 29.95 in 10.0 mi Calm Calm - N/A   Scattered Clouds
9:53 PM 73.9 °F - 68.0 °F 82% 29.96 in 10.0 mi NW 4.6 mph - N/A   Mostly Cloudy
10:53 PM 73.0 °F - 64.9 °F 76% 29.99 in 10.0 mi North 10.4 mph - N/A   Clear
11:53 PM 71.1 °F - 63.0 °F 75% 30.01 in 10.0 mi North 9.2 mph - N/A   Partly Cloudy